iso_date,Year,Hour,Min,DOY,POS_DOY,Lat,Lon,BP,Ts,Ta,has_bp,has_ts,has_ta,BuoyID,Buoy_Type,Buoy_Owner,Logistics,Hemisphere
2022-01-10T18:00:00Z,2022,18,0,10.75,10.75,67.923,-13.038,973.8,0.64,-999.0,yes,yes,no,300234068543440,BD2VHI,AOML,NEIL_ARMSTRON,North
2022-01-10T21:00:00Z,2022,21,0,10.875,10.875,67.921,-13.02,975.6,0.65,-999.0,yes,yes,no,300234068543440,BD2VHI,AOML,NEIL_ARMSTRON,North
2022-01-11T00:00:00Z,2022,0,0,11.0,11.0,67.927,-13.058,975.9,0.64,-999.0,yes,yes,no,300234068543440,BD2VHI,AOML,NEIL_ARMSTRON,North
2022-01-11T03:00:00Z,2022,3,0,11.125,11.125,67.958,-13.073,975.4,0.65,-999.0,yes,yes,no,300234068543440,BD2VHI,AOML,NEIL_ARMSTRON,North
2022-01-11T06:00:00Z,2022,6,0,11.25,11.25,67.985,-13.039,973.7,0.64,-999.0,yes,yes,no,300234068543440,BD2VHI,AOML,NEIL_ARMSTRON,North
2022-01-11T09:00:00Z,2022,9,0,11.375,11.375,67.99,-13.018,974.6,0.64,-999.0,yes,yes,no,300234068543440,BD2VHI,AOML,NEIL_ARMSTRON,North
2022-01-11T12:00:00Z,2022,12,0,11.5,11.5,67.991,-12.984,978.4,0.66,-999.0,yes,yes,no,300234068543440,BD2VHI,AOML,NEIL_ARMSTRON,North
2022-01-11T15:00:00Z,2022,15,0,11.625,11.625,68.01,-12.887,980.8,0.66,-999.0,yes,yes,no,300234068543440,BD2VHI,AOML,NEIL_ARMSTRON,North
2022-01-11T18:00:00Z,2022,18,0,11.75,11.75,68.02,-12.769,981.1,0.68,-999.0,yes,yes,no,300234068543440,BD2VHI,AOML,NEIL_ARMSTRON,North
2022-01-11T21:00:00Z,2022,21,0,11.875,11.875,68.0,-12.716,979.2,0.67,-999.0,yes,yes,no,300234068543440,BD2VHI,AOML,NEIL_ARMSTRON,North
2022-01-12T00:00:00Z,2022,0,0,12.0,12.0,67.985,-12.735,982.2,0.7,-999.0,yes,yes,no,300234068543440,BD2VHI,AOML,NEIL_ARMSTRON,North
2022-01-12T03:00:00Z,2022,3,0,12.125,12.125,68.008,-12.736,983.8,0.71,-999.0,yes,yes,no,300234068543440,BD2VHI,AOML,NEIL_ARMSTRON,North
2022-01-12T06:00:00Z,2022,6,0,12.25,12.25,68.031,-12.66,983.4,0.69,-999.0,yes,yes,no,300234068543440,BD2VHI,AOML,NEIL_ARMSTRON,North
2022-01-12T09:00:00Z,2022,9,0,12.375,12.375,68.04,-12.577,982.3,0.67,-999.0,yes,yes,no,300234068543440,BD2VHI,AOML,NEIL_ARMSTRON,North
2022-01-12T12:00:00Z,2022,12,0,12.5,12.5,68.031,-12.513,986.6,0.68,-999.0,yes,yes,no,300234068543440,BD2VHI,AOML,NEIL_ARMSTRON,North
2022-01-12T15:00:00Z,2022,15,0,12.625,12.625,68.041,-12.468,987.4,0.69,-999.0,yes,yes,no,300234068543440,BD2VHI,AOML,NEIL_ARMSTRON,North
2022-01-12T18:00:00Z,2022,18,0,12.75,12.75,68.058,-12.381,988.3,0.68,-999.0,yes,yes,no,300234068543440,BD2VHI,AOML,NEIL_ARMSTRON,North
2022-01-12T21:00:00Z,2022,21,0,12.875,12.875,68.073,-12.283,987.8,0.69,-999.0,yes,yes,no,300234068543440,BD2VHI,AOML,NEIL_ARMSTRON,North
2022-01-13T00:00:00Z,2022,0,0,13.0,13.0,68.09,-12.21,987.8,0.7,-999.0,yes,yes,no,300234068543440,BD2VHI,AOML,NEIL_ARMSTRON,North
2022-01-13T03:00:00Z,2022,3,0,13.125,13.125,68.115,-12.118,988.4,0.7,-999.0,yes,yes,no,300234068543440,BD2VHI,AOML,NEIL_ARMSTRON,North
2022-01-13T06:00:00Z,2022,6,0,13.25,13.25,68.146,-11.984,988.6,0.75,-999.0,yes,yes,no,300234068543440,BD2VHI,AOML,NEIL_ARMSTRON,North
2022-01-13T09:00:00Z,2022,9,0,13.375,13.375,68.15,-11.814,990.3,0.76,-999.0,yes,yes,no,300234068543440,BD2VHI,AOML,NEIL_ARMSTRON,North
2022-01-13T12:00:00Z,2022,12,0,13.5,13.5,68.128,-11.718,994.0,0.75,-999.0,yes,yes,no,300234068543440,BD2VHI,AOML,NEIL_ARMSTRON,North
2022-01-13T15:00:00Z,2022,15,0,13.625,13.625,68.13,-11.698,995.6,0.76,-999.0,yes,yes,no,300234068543440,BD2VHI,AOML,NEIL_ARMSTRON,North
2022-01-13T18:00:00Z,2022,18,0,13.75,13.75,68.136,-11.659,1001.2,0.74,-999.0,yes,yes,no,300234068543440,BD2VHI,AOML,NEIL_ARMSTRON,North
2022-01-13T21:00:00Z,2022,21,0,13.875,13.875,68.108,-11.551,1010.3,0.73,-999.0,yes,yes,no,300234068543440,BD2VHI,AOML,NEIL_ARMSTRON,North
2022-01-14T00:00:00Z,2022,0,0,14.0,14.0,68.054,-11.474,1017.1,0.77,-999.0,yes,yes,no,300234068543440,BD2VHI,AOML,NEIL_ARMSTRON,North
2022-01-14T03:00:00Z,2022,3,0,14.125,14.125,68.018,-11.456,1021.4,0.77,-999.0,yes,yes,no,300234068543440,BD2VHI,AOML,NEIL_ARMSTRON,North
2022-01-14T06:00:00Z,2022,6,0,14.25,14.25,68.024,-11.441,1022.6,0.87,-999.0,yes,yes,no,300234068543440,BD2VHI,AOML,NEIL_ARMSTRON,North
2022-01-14T09:00:00Z,2022,9,0,14.375,14.375,68.052,-11.389,1022.8,0.87,-999.0,yes,yes,no,300234068543440,BD2VHI,AOML,NEIL_ARMSTRON,North
2022-01-14T12:00:00Z,2022,12,0,14.5,14.5,68.076,-11.321,1021.3,0.83,-999.0,yes,yes,no,300234068543440,BD2VHI,AOML,NEIL_ARMSTRON,North
2022-01-14T15:00:00Z,2022,15,0,14.625,14.625,68.078,-11.293,1019.3,0.74,-999.0,yes,yes,no,300234068543440,BD2VHI,AOML,NEIL_ARMSTRON,North
2022-01-14T18:00:00Z,2022,18,0,14.75,14.75,68.098,-11.335,1015.1,0.73,-999.0,yes,yes,no,300234068543440,BD2VHI,AOML,NEIL_ARMSTRON,North
2022-01-14T21:00:00Z,2022,21,0,14.875,14.875,68.139,-11.323,1010.0,0.74,-999.0,yes,yes,no,300234068543440,BD2VHI,AOML,NEIL_ARMSTRON,North
2022-01-15T00:00:00Z,2022,0,0,15.0,15.0,68.151,-11.28,1002.7,0.73,-999.0,yes,yes,no,300234068543440,BD2VHI,AOML,NEIL_ARMSTRON,North
2022-01-15T03:00:00Z,2022,3,0,15.125,15.125,68.138,-11.271,997.8,0.73,-999.0,yes,yes,no,300234068543440,BD2VHI,AOML,NEIL_ARMSTRON,North
2022-01-15T06:00:00Z,2022,6,0,15.25,15.25,68.134,-11.282,997.4,0.79,-999.0,yes,yes,no,300234068543440,BD2VHI,AOML,NEIL_ARMSTRON,North
2022-01-15T09:00:00Z,2022,9,0,15.375,15.375,68.126,-11.246,999.2,0.77,-999.0,yes,yes,no,300234068543440,BD2VHI,AOML,NEIL_ARMSTRON,North
2022-01-15T12:00:00Z,2022,12,0,15.5,15.5,68.11,-11.152,1000.0,0.73,-999.0,yes,yes,no,300234068543440,BD2VHI,AOML,NEIL_ARMSTRON,North
2022-01-15T15:00:00Z,2022,15,0,15.625,15.625,68.079,-11.086,999.5,0.8,-999.0,yes,yes,no,300234068543440,BD2VHI,AOML,NEIL_ARMSTRON,North
2022-01-15T18:00:00Z,2022,18,0,15.75,15.75,68.053,-11.081,999.9,0.82,-999.0,yes,yes,no,300234068543440,BD2VHI,AOML,NEIL_ARMSTRON,North
2022-01-15T21:00:00Z,2022,21,0,15.875,15.875,68.04,-11.066,999.9,0.82,-999.0,yes,yes,no,300234068543440,BD2VHI,AOML,NEIL_ARMSTRON,North
2022-01-16T00:00:00Z,2022,0,0,16.0,16.0,68.037,-10.989,998.8,0.86,-999.0,yes,yes,no,300234068543440,BD2VHI,AOML,NEIL_ARMSTRON,North
2022-01-16T03:00:00Z,2022,3,0,16.125,16.125,68.016,-10.87,997.6,0.87,-999.0,yes,yes,no,300234068543440,BD2VHI,AOML,NEIL_ARMSTRON,North
2022-01-16T06:00:00Z,2022,6,0,16.25,16.25,67.965,-10.808,997.1,0.82,-999.0,yes,yes,no,300234068543440,BD2VHI,AOML,NEIL_ARMSTRON,North
2022-01-16T09:00:00Z,2022,9,0,16.375,16.375,67.932,-10.788,999.2,0.84,-999.0,yes,yes,no,300234068543440,BD2VHI,AOML,NEIL_ARMSTRON,North
2022-01-16T12:00:00Z,2022,12,0,16.5,16.5,67.92,-10.698,1001.9,0.85,-999.0,yes,yes,no,300234068543440,BD2VHI,AOML,NEIL_ARMSTRON,North
2022-01-16T15:00:00Z,2022,15,0,16.625,16.625,67.888,-10.586,1006.2,0.84,-999.0,yes,yes,no,300234068543440,BD2VHI,AOML,NEIL_ARMSTRON,North
2022-01-16T18:00:00Z,2022,18,0,16.75,16.75,67.844,-10.537,1010.9,0.86,-999.0,yes,yes,no,300234068543440,BD2VHI,AOML,NEIL_ARMSTRON,North
2022-01-16T21:00:00Z,2022,21,0,16.875,16.875,67.811,-10.544,1014.2,0.83,-999.0,yes,yes,no,300234068543440,BD2VHI,AOML,NEIL_ARMSTRON,North
2022-01-17T00:00:00Z,2022,0,0,17.0,17.0,67.812,-10.577,1015.7,0.82,-999.0,yes,yes,no,300234068543440,BD2VHI,AOML,NEIL_ARMSTRON,North
2022-01-17T03:00:00Z,2022,3,0,17.125,17.125,67.829,-10.532,1015.4,0.75,-999.0,yes,yes,no,300234068543440,BD2VHI,AOML,NEIL_ARMSTRON,North
2022-01-17T06:00:00Z,2022,6,0,17.25,17.25,67.842,-10.497,1013.0,0.82,-999.0,yes,yes,no,300234068543440,BD2VHI,AOML,NEIL_ARMSTRON,North
2022-01-17T09:00:00Z,2022,9,0,17.375,17.375,67.867,-10.54,1010.0,0.78,-999.0,yes,yes,no,300234068543440,BD2VHI,AOML,NEIL_ARMSTRON,North
2022-01-17T12:00:00Z,2022,12,0,17.5,17.5,67.917,-10.582,1006.4,0.83,-999.0,yes,yes,no,300234068543440,BD2VHI,AOML,NEIL_ARMSTRON,North
2022-01-17T15:00:00Z,2022,15,0,17.625,17.625,67.959,-10.539,1002.2,0.88,-999.0,yes,yes,no,300234068543440,BD2VHI,AOML,NEIL_ARMSTRON,North
2022-01-17T18:00:00Z,2022,18,0,17.75,17.75,67.967,-10.475,998.8,0.87,-999.0,yes,yes,no,300234068543440,BD2VHI,AOML,NEIL_ARMSTRON,North
2022-01-17T21:00:00Z,2022,21,0,17.875,17.875,67.973,-10.459,995.8,0.89,-999.0,yes,yes,no,300234068543440,BD2VHI,AOML,NEIL_ARMSTRON,North
2022-01-18T00:00:00Z,2022,0,0,18.0,18.0,67.998,-10.427,995.5,1.14,-999.0,yes,yes,no,300234068543440,BD2VHI,AOML,NEIL_ARMSTRON,North
2022-01-18T03:00:00Z,2022,3,0,18.125,18.125,68.019,-10.372,992.9,1.14,-999.0,yes,yes,no,300234068543440,BD2VHI,AOML,NEIL_ARMSTRON,North
2022-01-18T06:00:00Z,2022,6,0,18.25,18.25,68.024,-10.307,991.3,1.1,-999.0,yes,yes,no,300234068543440,BD2VHI,AOML,NEIL_ARMSTRON,North
2022-01-18T09:00:00Z,2022,9,0,18.375,18.375,68.024,-10.268,990.7,1.1,-999.0,yes,yes,no,300234068543440,BD2VHI,AOML,NEIL_ARMSTRON,North
2022-01-18T12:00:00Z,2022,12,0,18.5,18.5,68.039,-10.244,990.2,1.06,-999.0,yes,yes,no,300234068543440,BD2VHI,AOML,NEIL_ARMSTRON,North
2022-01-18T15:00:00Z,2022,15,0,18.625,18.625,68.038,-10.178,992.3,1.12,-999.0,yes,yes,no,300234068543440,BD2VHI,AOML,NEIL_ARMSTRON,North
2022-01-18T18:00:00Z,2022,18,0,18.75,18.75,68.002,-10.136,996.7,1.15,-999.0,yes,yes,no,300234068543440,BD2VHI,AOML,NEIL_ARMSTRON,North
2022-01-18T21:00:00Z,2022,21,0,18.875,18.875,67.956,-10.098,1001.3,1.03,-999.0,yes,yes,no,300234068543440,BD2VHI,AOML,NEIL_ARMSTRON,North
2022-01-19T00:00:00Z,2022,0,0,19.0,19.0,67.914,-10.082,1004.0,0.83,-999.0,yes,yes,no,300234068543440,BD2VHI,AOML,NEIL_ARMSTRON,North
2022-01-19T03:00:00Z,2022,3,0,19.125,19.125,67.88,-10.036,1003.5,0.79,-999.0,yes,yes,no,300234068543440,BD2VHI,AOML,NEIL_ARMSTRON,North
2022-01-19T06:00:00Z,2022,6,0,19.25,19.25,67.846,-9.946,1010.3,0.77,-999.0,yes,yes,no,300234068543440,BD2VHI,AOML,NEIL_ARMSTRON,North
2022-01-19T09:00:00Z,2022,9,0,19.375,19.375,67.794,-9.836,1015.7,0.8,-999.0,yes,yes,no,300234068543440,BD2VHI,AOML,NEIL_ARMSTRON,North
2022-01-19T12:00:00Z,2022,12,0,19.5,19.5,67.737,-9.787,1019.3,0.82,-999.0,yes,yes,no,300234068543440,BD2VHI,AOML,NEIL_ARMSTRON,North
2022-01-19T15:00:00Z,2022,15,0,19.625,19.625,67.707,-9.751,1017.7,0.95,-999.0,yes,yes,no,300234068543440,BD2VHI,AOML,NEIL_ARMSTRON,North
2022-01-19T18:00:00Z,2022,18,0,19.75,19.75,67.687,-9.667,1023.8,0.9,-999.0,yes,yes,no,300234068543440,BD2VHI,AOML,NEIL_ARMSTRON,North
2022-01-19T21:00:00Z,2022,21,0,19.875,19.875,67.658,-9.574,1024.4,0.93,-999.0,yes,yes,no,300234068543440,BD2VHI,AOML,NEIL_ARMSTRON,North
2022-01-20T00:00:00Z,2022,0,0,20.0,20.0,67.635,-9.52,1025.0,0.77,-999.0,yes,yes,no,300234068543440,BD2VHI,AOML,NEIL_ARMSTRON,North
2022-01-20T03:00:00Z,2022,3,0,20.125,20.125,67.628,-9.503,1023.8,0.77,-999.0,yes,yes,no,300234068543440,BD2VHI,AOML,NEIL_ARMSTRON,North
2022-01-20T06:00:00Z,2022,6,0,20.25,20.25,67.641,-9.437,1022.0,0.79,-999.0,yes,yes,no,300234068543440,BD2VHI,AOML,NEIL_ARMSTRON,North
2022-01-20T09:00:00Z,2022,9,0,20.375,20.375,67.648,-9.314,1019.7,0.79,-999.0,yes,yes,no,300234068543440,BD2VHI,AOML,NEIL_ARMSTRON,North
2022-01-20T12:00:00Z,2022,12,0,20.5,20.5,67.646,-9.221,1018.6,0.79,-999.0,yes,yes,no,300234068543440,BD2VHI,AOML,NEIL_ARMSTRON,North
2022-01-20T15:00:00Z,2022,15,0,20.625,20.625,67.653,-9.171,1018.0,0.78,-999.0,yes,yes,no,300234068543440,BD2VHI,AOML,NEIL_ARMSTRON,North
2022-01-20T18:00:00Z,2022,18,0,20.75,20.75,67.669,-9.142,1016.3,0.78,-999.0,yes,yes,no,300234068543440,BD2VHI,AOML,NEIL_ARMSTRON,North
2022-01-20T21:00:00Z,2022,21,0,20.875,20.875,67.678,-9.092,1014.7,0.84,-999.0,yes,yes,no,300234068543440,BD2VHI,AOML,NEIL_ARMSTRON,North
2022-01-21T00:00:00Z,2022,0,0,21.0,21.0,67.681,-9.062,1013.3,0.79,-999.0,yes,yes,no,300234068543440,BD2VHI,AOML,NEIL_ARMSTRON,North
2022-01-21T03:00:00Z,2022,3,0,21.125,21.125,67.68,-9.053,1011.4,0.92,-999.0,yes,yes,no,300234068543440,BD2VHI,AOML,NEIL_ARMSTRON,North
2022-01-21T06:00:00Z,2022,6,0,21.25,21.25,67.693,-9.038,1008.3,0.94,-999.0,yes,yes,no,300234068543440,BD2VHI,AOML,NEIL_ARMSTRON,North
2022-01-21T09:00:00Z,2022,9,0,21.375,21.375,67.717,-9.019,1004.3,0.94,-999.0,yes,yes,no,300234068543440,BD2VHI,AOML,NEIL_ARMSTRON,North
2022-01-21T12:00:00Z,2022,12,0,21.5,21.5,67.747,-8.956,1000.3,0.97,-999.0,yes,yes,no,300234068543440,BD2VHI,AOML,NEIL_ARMSTRON,North
2022-01-21T15:00:00Z,2022,15,0,21.625,21.625,67.774,-8.897,999.2,0.92,-999.0,yes,yes,no,300234068543440,BD2VHI,AOML,NEIL_ARMSTRON,North
2022-01-21T18:00:00Z,2022,18,0,21.75,21.75,67.785,-8.845,999.9,0.91,-999.0,yes,yes,no,300234068543440,BD2VHI,AOML,NEIL_ARMSTRON,North
2022-01-21T21:00:00Z,2022,21,0,21.875,21.875,67.797,-8.771,999.0,0.84,-999.0,yes,yes,no,300234068543440,BD2VHI,AOML,NEIL_ARMSTRON,North
2022-01-22T00:00:00Z,2022,0,0,22.0,22.0,67.825,-8.685,995.9,0.82,-999.0,yes,yes,no,300234068543440,BD2VHI,AOML,NEIL_ARMSTRON,North
2022-01-22T03:00:00Z,2022,3,0,22.125,22.125,67.856,-8.66,988.1,0.99,-999.0,yes,yes,no,300234068543440,BD2VHI,AOML,NEIL_ARMSTRON,North
2022-01-22T06:00:00Z,2022,6,0,22.25,22.25,67.912,-8.596,984.0,0.96,-999.0,yes,yes,no,300234068543440,BD2VHI,AOML,NEIL_ARMSTRON,North
2022-01-22T09:00:00Z,2022,9,0,22.375,22.375,67.938,-8.479,985.2,1.09,-999.0,yes,yes,no,300234068543440,BD2VHI,AOML,NEIL_ARMSTRON,North
2022-01-22T12:00:00Z,2022,12,0,22.5,22.5,67.953,-8.39,983.1,1.15,-999.0,yes,yes,no,300234068543440,BD2VHI,AOML,NEIL_ARMSTRON,North
2022-01-22T15:00:00Z,2022,15,0,22.625,22.625,67.968,-8.319,983.7,1.12,-999.0,yes,yes,no,300234068543440,BD2VHI,AOML,NEIL_ARMSTRON,North
2022-01-22T18:00:00Z,2022,18,0,22.75,22.75,67.996,-8.24,986.0,1.03,-999.0,yes,yes,no,300234068543440,BD2VHI,AOML,NEIL_ARMSTRON,North
2022-01-22T21:00:00Z,2022,21,0,22.875,22.875,68.012,-8.104,988.5,1.33,-999.0,yes,yes,no,300234068543440,BD2VHI,AOML,NEIL_ARMSTRON,North
2022-01-23T00:00:00Z,2022,0,0,23.0,23.0,68.027,-8.001,989.3,1.65,-999.0,yes,yes,no,300234068543440,BD2VHI,AOML,NEIL_ARMSTRON,North
2022-01-23T03:00:00Z,2022,3,0,23.125,23.125,68.047,-7.96,987.4,2.32,-999.0,yes,yes,no,300234068543440,BD2VHI,AOML,NEIL_ARMSTRON,North
2022-01-23T06:00:00Z,2022,6,0,23.25,23.25,68.079,-7.935,983.5,2.14,-999.0,yes,yes,no,300234068543440,BD2VHI,AOML,NEIL_ARMSTRON,North
2022-01-23T09:00:00Z,2022,9,0,23.375,23.375,68.091,-7.911,980.3,2.0,-999.0,yes,yes,no,300234068543440,BD2VHI,AOML,NEIL_ARMSTRON,North
2022-01-23T12:00:00Z,2022,12,0,23.5,23.5,68.091,-7.912,978.8,1.85,-999.0,yes,yes,no,300234068543440,BD2VHI,AOML,NEIL_ARMSTRON,North
2022-01-23T15:00:00Z,2022,15,0,23.625,23.625,68.109,-7.852,981.0,2.07,-999.0,yes,yes,no,300234068543440,BD2VHI,AOML,NEIL_ARMSTRON,North
2022-01-23T18:00:00Z,2022,18,0,23.75,23.75,68.128,-7.731,985.1,2.21,-999.0,yes,yes,no,300234068543440,BD2VHI,AOML,NEIL_ARMSTRON,North
2022-01-23T21:00:00Z,2022,21,0,23.875,23.875,68.139,-7.606,989.1,2.56,-999.0,yes,yes,no,300234068543440,BD2VHI,AOML,NEIL_ARMSTRON,North
2022-01-24T00:00:00Z,2022,0,0,24.0,24.0,68.143,-7.502,992.4,2.84,-999.0,yes,yes,no,300234068543440,BD2VHI,AOML,NEIL_ARMSTRON,North
2022-01-24T03:00:00Z,2022,3,0,24.125,24.125,68.125,-7.474,997.1,3.23,-999.0,yes,yes,no,300234068543440,BD2VHI,AOML,NEIL_ARMSTRON,North
2022-01-24T06:00:00Z,2022,6,0,24.25,24.25,68.101,-7.491,1002.1,2.69,-999.0,yes,yes,no,300234068543440,BD2VHI,AOML,NEIL_ARMSTRON,North
2022-01-24T09:00:00Z,2022,9,0,24.375,24.375,68.092,-7.498,1007.0,2.78,-999.0,yes,yes,no,300234068543440,BD2VHI,AOML,NEIL_ARMSTRON,North
2022-01-24T12:00:00Z,2022,12,0,24.5,24.5,68.084,-7.471,1010.6,2.85,-999.0,yes,yes,no,300234068543440,BD2VHI,AOML,NEIL_ARMSTRON,North
2022-01-24T15:00:00Z,2022,15,0,24.625,24.625,68.07,-7.419,1013.5,3.72,-999.0,yes,yes,no,300234068543440,BD2VHI,AOML,NEIL_ARMSTRON,North
2022-01-24T18:00:00Z,2022,18,0,24.75,24.75,68.056,-7.371,1016.2,3.62,-999.0,yes,yes,no,300234068543440,BD2VHI,AOML,NEIL_ARMSTRON,North
2022-01-24T21:00:00Z,2022,21,0,24.875,24.875,68.052,-7.316,1017.3,3.67,-999.0,yes,yes,no,300234068543440,BD2VHI,AOML,NEIL_ARMSTRON,North
2022-01-25T00:00:00Z,2022,0,0,25.0,25.0,68.045,-7.254,1017.1,3.7,-999.0,yes,yes,no,300234068543440,BD2VHI,AOML,NEIL_ARMSTRON,North
2022-01-25T03:00:00Z,2022,3,0,25.125,25.125,68.039,-7.233,1015.2,3.86,-999.0,yes,yes,no,300234068543440,BD2VHI,AOML,NEIL_ARMSTRON,North
2022-01-25T06:00:00Z,2022,6,0,25.25,25.25,68.046,-7.248,1011.6,3.64,-999.0,yes,yes,no,300234068543440,BD2VHI,AOML,NEIL_ARMSTRON,North
2022-01-25T09:00:00Z,2022,9,0,25.375,25.375,68.059,-7.272,1007.2,3.62,-999.0,yes,yes,no,300234068543440,BD2VHI,AOML,NEIL_ARMSTRON,North
2022-01-25T12:00:00Z,2022,12,0,25.5,25.5,68.084,-7.292,1000.5,3.49,-999.0,yes,yes,no,300234068543440,BD2VHI,AOML,NEIL_ARMSTRON,North
2022-01-25T15:00:00Z,2022,15,0,25.625,25.625,68.104,-7.31,994.0,3.78,-999.0,yes,yes,no,300234068543440,BD2VHI,AOML,NEIL_ARMSTRON,North
2022-01-25T18:00:00Z,2022,18,0,25.75,25.75,68.123,-7.315,990.5,3.83,-999.0,yes,yes,no,300234068543440,BD2VHI,AOML,NEIL_ARMSTRON,North
2022-01-25T21:00:00Z,2022,21,0,25.875,25.875,68.145,-7.327,989.2,3.8,-999.0,yes,yes,no,300234068543440,BD2VHI,AOML,NEIL_ARMSTRON,North
2022-01-26T00:00:00Z,2022,0,0,26.0,26.0,68.156,-7.33,990.0,3.77,-999.0,yes,yes,no,300234068543440,BD2VHI,AOML,NEIL_ARMSTRON,North
2022-01-26T03:00:00Z,2022,3,0,26.125,26.125,68.139,-7.334,993.4,3.78,-999.0,yes,yes,no,300234068543440,BD2VHI,AOML,NEIL_ARMSTRON,North
2022-01-26T06:00:00Z,2022,6,0,26.25,26.25,68.107,-7.348,996.4,3.82,-999.0,yes,yes,no,300234068543440,BD2VHI,AOML,NEIL_ARMSTRON,North
2022-01-26T09:00:00Z,2022,9,0,26.375,26.375,68.064,-7.405,1000.7,3.46,-999.0,yes,yes,no,300234068543440,BD2VHI,AOML,NEIL_ARMSTRON,North
2022-01-26T12:00:00Z,2022,12,0,26.5,26.5,68.034,-7.404,1002.0,3.62,-999.0,yes,yes,no,300234068543440,BD2VHI,AOML,NEIL_ARMSTRON,North
2022-01-26T15:00:00Z,2022,15,0,26.625,26.625,68.01,-7.4,1001.7,3.67,-999.0,yes,yes,no,300234068543440,BD2VHI,AOML,NEIL_ARMSTRON,North
2022-01-26T18:00:00Z,2022,18,0,26.75,26.75,67.981,-7.392,1002.2,3.51,-999.0,yes,yes,no,300234068543440,BD2VHI,AOML,NEIL_ARMSTRON,North
2022-01-26T21:00:00Z,2022,21,0,26.875,26.875,67.955,-7.378,1003.2,3.72,-999.0,yes,yes,no,300234068543440,BD2VHI,AOML,NEIL_ARMSTRON,North
2022-01-27T00:00:00Z,2022,0,0,27.0,27.0,67.935,-7.376,1004.9,3.68,-999.0,yes,yes,no,300234068543440,BD2VHI,AOML,NEIL_ARMSTRON,North
2022-01-27T03:00:00Z,2022,3,0,27.125,27.125,67.922,-7.382,1006.1,3.7,-999.0,yes,yes,no,300234068543440,BD2VHI,AOML,NEIL_ARMSTRON,North
2022-01-27T06:00:00Z,2022,6,0,27.25,27.25,67.914,-7.36,1007.2,3.75,-999.0,yes,yes,no,300234068543440,BD2VHI,AOML,NEIL_ARMSTRON,North
2022-01-27T09:00:00Z,2022,9,0,27.375,27.375,67.911,-7.335,1008.6,3.78,-999.0,yes,yes,no,300234068543440,BD2VHI,AOML,NEIL_ARMSTRON,North
2022-01-27T12:00:00Z,2022,12,0,27.5,27.5,67.914,-7.323,1009.0,3.8,-999.0,yes,yes,no,300234068543440,BD2VHI,AOML,NEIL_ARMSTRON,North
2022-01-27T15:00:00Z,2022,15,0,27.625,27.625,67.914,-7.274,1010.4,3.76,-999.0,yes,yes,no,300234068543440,BD2VHI,AOML,NEIL_ARMSTRON,North
2022-01-27T18:00:00Z,2022,18,0,27.75,27.75,67.91,-7.206,1011.2,3.79,-999.0,yes,yes,no,300234068543440,BD2VHI,AOML,NEIL_ARMSTRON,North
2022-01-27T21:00:00Z,2022,21,0,27.875,27.875,67.909,-7.148,1012.1,3.81,-999.0,yes,yes,no,300234068543440,BD2VHI,AOML,NEIL_ARMSTRON,North
2022-01-28T00:00:00Z,2022,0,0,28.0,28.0,67.913,-7.114,1011.4,3.84,-999.0,yes,yes,no,300234068543440,BD2VHI,AOML,NEIL_ARMSTRON,North
2022-01-28T03:00:00Z,2022,3,0,28.125,28.125,67.93,-7.097,1008.2,3.86,-999.0,yes,yes,no,300234068543440,BD2VHI,AOML,NEIL_ARMSTRON,North
2022-01-28T06:00:00Z,2022,6,0,28.25,28.25,67.96,-7.094,1003.4,3.69,-999.0,yes,yes,no,300234068543440,BD2VHI,AOML,NEIL_ARMSTRON,North
2022-01-28T09:00:00Z,2022,9,0,28.375,28.375,67.986,-7.113,996.9,3.69,-999.0,yes,yes,no,300234068543440,BD2VHI,AOML,NEIL_ARMSTRON,North
2022-01-28T12:00:00Z,2022,12,0,28.5,28.5,68.009,-7.162,988.2,3.57,-999.0,yes,yes,no,300234068543440,BD2VHI,AOML,NEIL_ARMSTRON,North
2022-01-28T15:00:00Z,2022,15,0,28.625,28.625,68.039,-7.222,981.2,3.64,-999.0,yes,yes,no,300234068543440,BD2VHI,AOML,NEIL_ARMSTRON,North
2022-01-28T18:00:00Z,2022,18,0,28.75,28.75,68.047,-7.21,978.1,3.81,-999.0,yes,yes,no,300234068543440,BD2VHI,AOML,NEIL_ARMSTRON,North
2022-01-28T21:00:00Z,2022,21,0,28.875,28.875,68.03,-7.103,977.9,3.65,-999.0,yes,yes,no,300234068543440,BD2VHI,AOML,NEIL_ARMSTRON,North
2022-01-29T00:00:00Z,2022,0,0,29.0,29.0,68.018,-7.007,977.3,3.63,-999.0,yes,yes,no,300234068543440,BD2VHI,AOML,NEIL_ARMSTRON,North
2022-01-29T03:00:00Z,2022,3,0,29.125,29.125,68.011,-6.969,976.3,3.58,-999.0,yes,yes,no,300234068543440,BD2VHI,AOML,NEIL_ARMSTRON,North
2022-01-29T06:00:00Z,2022,6,0,29.25,29.25,67.986,-6.92,977.6,3.58,-999.0,yes,yes,no,300234068543440,BD2VHI,AOML,NEIL_ARMSTRON,North
2022-01-29T09:00:00Z,2022,9,0,29.375,29.375,67.909,-6.928,989.0,3.94,-999.0,yes,yes,no,300234068543440,BD2VHI,AOML,NEIL_ARMSTRON,North
2022-01-29T12:00:00Z,2022,12,0,29.5,29.5,67.843,-6.921,999.6,3.85,-999.0,yes,yes,no,300234068543440,BD2VHI,AOML,NEIL_ARMSTRON,North
2022-01-29T15:00:00Z,2022,15,0,29.625,29.625,67.796,-6.899,1007.2,3.91,-999.0,yes,yes,no,300234068543440,BD2VHI,AOML,NEIL_ARMSTRON,North
2022-01-29T18:00:00Z,2022,18,0,29.75,29.75,67.78,-6.822,1011.6,4.19,-999.0,yes,yes,no,300234068543440,BD2VHI,AOML,NEIL_ARMSTRON,North
2022-01-29T21:00:00Z,2022,21,0,29.875,29.875,67.762,-6.68,1014.2,4.21,-999.0,yes,yes,no,300234068543440,BD2VHI,AOML,NEIL_ARMSTRON,North
2022-01-30T00:00:00Z,2022,0,0,30.0,30.0,67.73,-6.57,1015.3,4.21,-999.0,yes,yes,no,300234068543440,BD2VHI,AOML,NEIL_ARMSTRON,North
2022-01-30T03:00:00Z,2022,3,0,30.125,30.125,67.704,-6.491,1013.9,4.22,-999.0,yes,yes,no,300234068543440,BD2VHI,AOML,NEIL_ARMSTRON,North
2022-01-30T06:00:00Z,2022,6,0,30.25,30.25,67.688,-6.412,1011.7,4.05,-999.0,yes,yes,no,300234068543440,BD2VHI,AOML,NEIL_ARMSTRON,North
2022-01-30T09:00:00Z,2022,9,0,30.375,30.375,67.669,-6.319,1009.9,3.97,-999.0,yes,yes,no,300234068543440,BD2VHI,AOML,NEIL_ARMSTRON,North
2022-01-30T12:00:00Z,2022,12,0,30.5,30.5,67.639,-6.254,1007.8,3.91,-999.0,yes,yes,no,300234068543440,BD2VHI,AOML,NEIL_ARMSTRON,North
2022-01-30T15:00:00Z,2022,15,0,30.625,30.625,67.617,-6.255,1003.9,3.86,-999.0,yes,yes,no,300234068543440,BD2VHI,AOML,NEIL_ARMSTRON,North
2022-01-30T18:00:00Z,2022,18,0,30.75,30.75,67.616,-6.264,999.2,3.83,-999.0,yes,yes,no,300234068543440,BD2VHI,AOML,NEIL_ARMSTRON,North
2022-01-30T21:00:00Z,2022,21,0,30.875,30.875,67.614,-6.243,995.4,3.73,-999.0,yes,yes,no,300234068543440,BD2VHI,AOML,NEIL_ARMSTRON,North
2022-01-31T00:00:00Z,2022,0,0,31.0,31.0,67.604,-6.227,992.3,3.45,-999.0,yes,yes,no,300234068543440,BD2VHI,AOML,NEIL_ARMSTRON,North
2022-01-31T03:00:00Z,2022,3,0,31.125,31.125,67.568,-6.173,993.2,3.46,-999.0,yes,yes,no,300234068543440,BD2VHI,AOML,NEIL_ARMSTRON,North
2022-01-31T06:00:00Z,2022,6,0,31.25,31.25,67.548,-6.085,995.6,3.73,-999.0,yes,yes,no,300234068543440,BD2VHI,AOML,NEIL_ARMSTRON,North
2022-01-31T09:00:00Z,2022,9,0,31.375,31.375,67.537,-5.987,997.8,3.69,-999.0,yes,yes,no,300234068543440,BD2VHI,AOML,NEIL_ARMSTRON,North
2022-01-31T12:00:00Z,2022,12,0,31.5,31.5,67.527,-5.848,999.2,3.77,-999.0,yes,yes,no,300234068543440,BD2VHI,AOML,NEIL_ARMSTRON,North
2022-01-31T15:00:00Z,2022,15,0,31.625,31.625,67.5,-5.739,1000.4,3.75,-999.0,yes,yes,no,300234068543440,BD2VHI,AOML,NEIL_ARMSTRON,North
2022-01-31T18:00:00Z,2022,18,0,31.75,31.75,67.486,-5.691,998.3,3.91,-999.0,yes,yes,no,300234068543440,BD2VHI,AOML,NEIL_ARMSTRON,North
2022-01-31T21:00:00Z,2022,21,0,31.875,31.875,67.492,-5.618,996.4,3.93,-999.0,yes,yes,no,300234068543440,BD2VHI,AOML,NEIL_ARMSTRON,North
2022-02-01T00:00:00Z,2022,0,0,32.0,32.0,67.496,-5.524,993.8,4.05,-999.0,yes,yes,no,300234068543440,BD2VHI,AOML,NEIL_ARMSTRON,North
2022-02-01T03:00:00Z,2022,3,0,32.125,32.125,67.489,-5.475,991.9,4.08,-999.0,yes,yes,no,300234068543440,BD2VHI,AOML,NEIL_ARMSTRON,North
2022-02-01T06:00:00Z,2022,6,0,32.25,32.25,67.482,-5.464,992.3,4.1,-999.0,yes,yes,no,300234068543440,BD2VHI,AOML,NEIL_ARMSTRON,North
2022-02-01T09:00:00Z,2022,9,0,32.375,32.375,67.486,-5.442,993.3,4.03,-999.0,yes,yes,no,300234068543440,BD2VHI,AOML,NEIL_ARMSTRON,North
2022-02-01T12:00:00Z,2022,12,0,32.5,32.5,67.495,-5.396,994.7,4.06,-999.0,yes,yes,no,300234068543440,BD2VHI,AOML,NEIL_ARMSTRON,North
2022-02-01T15:00:00Z,2022,15,0,32.625,32.625,67.489,-5.351,995.6,4.07,-999.0,yes,yes,no,300234068543440,BD2VHI,AOML,NEIL_ARMSTRON,North
2022-02-01T18:00:00Z,2022,18,0,32.75,32.75,67.48,-5.326,996.7,4.08,-999.0,yes,yes,no,300234068543440,BD2VHI,AOML,NEIL_ARMSTRON,North